Regional Weather Roundup
Issued by NWS Jackson, KY

Home | Current Version | Previous Version | Text Only | Print | Product List | Glossary Off
Versions: 1 2 3 4 5 6 7 8 9 10 11 12 13 14 15 16 17 18 19 20 21 22 23 24 25 26 27 28 29 30 31 32 33 34 35 36 37 38 39 40 41 42 43 44 45 46 47 48 49 50

000
ASUS43 KJKL 231210
RWRJKL

EAST KENTUCKY HOURLY WEATHER ROUNDUP
NATIONAL WEATHER SERVICE JACKSON KY
800 AM EDT WED AUG 23 2017

NOTE: "FAIR" INDICATES FEW OR NO CLOUDS BELOW 12,000 FEET WITH
NO SIGNIFICANT WEATHER AND/OR OBSTRUCTIONS TO VISIBILITY.

* THESE REPORTS ARE NOT UNDER NWS QUALITY CONTROL AND MAY NOT
  REPORT WEATHER SUCH AS PRECIPITATION AND FOG.

KYZ079-080-083-085-087-088-110-112-115-119-120-231300
...EASTERN KENTUCKY...

CITY           SKY/WX    TMP DP  RH WIND       PRES   REMARKS
JACKSON        CLOUDY    69  67  93 CALM      30.00R FOG
6HR MIN TEMP:  69; 6HR MAX TEMP:  70;

LONDON         PTSUNNY   69  67  93 NW6       30.01R
6HR MIN TEMP:  69; 6HR MAX TEMP:  70;

SOMERSET*      CLOUDY    68  68 100 NW3       30.02R
MONTICELLO*    CLOUDY    70  68  93 N10       30.03R
6HR MIN TEMP:  69; 6HR MAX TEMP:  72;

WILLIAMSBURG*  CLOUDY    68  68 100 CALM      30.01R
MIDDLESBORO*   CLOUDY    71  71 100 CALM      30.00S
6HR MIN TEMP:  70; 6HR MAX TEMP:  71; 6HR PCP:  0.24;

HARLAN APT*    CLOUDY    68  66  94 CALM      30.01S
PIKE CO APT*   CLOUDY    68  68 100 N5        30.00R
BIG SANDY APT* CLOUDY    69  69 100 N5        29.99S
6HR MIN TEMP:  69; 6HR MAX TEMP:  71;

MOREHEAD APT*  CLOUDY    64  61  88 CALM      30.02R
$$

KYZ035-036-041-042-044-050-067-078-099-231300
...CENTRAL KENTUCKY...

CITY           SKY/WX    TMP DP  RH WIND       PRES   REMARKS
MT STERLING*   PTSUNNY   64  63  94 CALM      30.03R
FLEMING/MASON* PTSUNNY   64  60  86 N3        30.02R
DANVILLE*      CLOUDY    66  64  94 NW5       30.03R
LEXINGTON      SUNNY     67  62  84 NE6       30.01R
6HR MIN TEMP:  65; 6HR MAX TEMP:  71;

FRANKFORT      MOSUNNY   67  63  87 N3        30.01R
6HR MIN TEMP:  66; 6HR MAX TEMP:  71;

LOUISVILLE     PTCLDY    67  62  84 N6        30.01R
6HR MIN TEMP:  66; 6HR MAX TEMP:  72;

LEBANON*         N/A     64  64 100 CALM      30.02R FOG
GLASGOW*       PTCLDY   N/A N/A N/A CALM      30.02S HAZE
BOWLING GREEN  CLEAR     68  66  93 W3        30.03R
6HR MIN TEMP:  67; 6HR MAX TEMP:  73;

$$

KYZ091>093-OHZ055-061-077-WVZ005-015-034-035-042-231300
...SOUTHERN OHIO/WEST VIRGINIA...

CITY           SKY/WX    TMP DP  RH WIND       PRES   REMARKS
COVINGTON      MOSUNNY   64  60  87 N5        30.01R
COLUMBUS       MOSUNNY   62  56  80 N5        29.99R
DAYTON         SUNNY     60  56  86 NW6       30.02R
WILMINGTON     SUNNY     62  57  83 N8        30.01R
HUNTINGTON     CLOUDY    67  62  84 NW7       29.98R
CHARLESTON     CLOUDY    69  64  84 CALM      29.97R
PINEVILLE*     CLOUDY    70  69  96 MISG      30.03R FOG
BECKLEY        LGT RAIN  66  65  96 NW8       30.00R FOG
BLUEFIELD      CLOUDY    65  64  97 NW6       30.03R
LOGAN CO APT*  CLOUDY    68  68 100 CALM      29.99R
$$

VAZ002-007-008-TNZ017-027-036-066-071-231300
...SOUTHWEST VIRGINIA/EAST TENNESSEE...

CITY           SKY/WX    TMP DP  RH WIND       PRES   REMARKS
WISE*          CLOUDY    66  66 100 CALM      30.05S
JONESVILLE*    PTSUNNY   70  68  94 CALM      30.02R
ABINGDON*      CLOUDY    73  69  87 CALM      30.01R
BRISTOL        CLOUDY    73  69  87 W5        29.99R
MORRISTOWN*    CLOUDY    73  72  94 NW3       29.98R
SEVIERVILLE*   CLOUDY    73  68  83 W5        29.97R
KNOXVILLE      CLOUDY    74  68  81 N7        29.98R
LAFOLLETTE*    CLOUDY    72  70  94 CALM      30.03R
OAK RIDGE      CLOUDY    74  69  85 CALM      30.00R
CROSSVILLE     CLOUDY    69  66  90 N5        30.05R
NASHVILLE      MOCLDY    71  68  90 NW6       30.03R
$$

...KEY TO REMARKS...
VSB - VISIBILITY IN MILES
WCI - WIND CHILL INDEX
HX  - HEAT INDEX

$$



USA.gov is the U.S. government's official web portal to all federal, state and local government web resources and services.